owner,sensor,date,latitude,longitude,vertical_datum,mass_concentration_of_oxygen_in_sea_water,qcFlag 
DISL,ioos:station:DISL:PPTA:1,2014-03-01T00:00:00Z,30.2791,-87.5561,1.157,8.38,1111122 
DISL,ioos:station:DISL:PPTA:1,2014-03-01T00:30:00Z,30.2791,-87.5561,1.16,8.17,1111122 
DISL,ioos:station:DISL:PPTA:1,2014-03-01T01:00:00Z,30.2791,-87.5561,1.165,8.25,1111122 
DISL,ioos:station:DISL:PPTA:1,2014-03-01T01:30:00Z,30.2791,-87.5561,1.199,8.16,1111122 
DISL,ioos:station:DISL:PPTA:1,2014-03-01T02:00:00Z,30.2791,-87.5561,1.218,8.29,1111122 
DISL,ioos:station:DISL:PPTA:1,2014-03-01T02:30:00Z,30.2791,-87.5561,1.215,8.32,1111122 
DISL,ioos:station:DISL:PPTA:1,2014-03-01T03:00:00Z,30.2791,-87.5561,1.243,8.27,1111122 
DISL,ioos:station:DISL:PPTA:1,2014-03-01T03:30:00Z,30.2791,-87.5561,1.245,8.27,1111122 
DISL,ioos:station:DISL:PPTA:1,2014-03-01T04:00:00Z,30.2791,-87.5561,1.22,8.23,1111122 
DISL,ioos:station:DISL:PPTA:1,2014-03-01T04:30:00Z,30.2791,-87.5561,1.227,8.13,1111122 
DISL,ioos:station:DISL:PPTA:1,2014-03-01T05:00:00Z,30.2791,-87.5561,1.23,8.01,1111122 
DISL,ioos:station:DISL:PPTA:1,2014-03-01T05:30:00Z,30.2791,-87.5561,1.214,8.12,1111122 
DISL,ioos:station:DISL:PPTA:1,2014-03-01T06:00:00Z,30.2791,-87.5561,1.213,8.19,1111122 
DISL,ioos:station:DISL:PPTA:1,2014-03-01T06:30:00Z,30.2791,-87.5561,1.2,8.07,1111122 
DISL,ioos:station:DISL:PPTA:1,2014-03-01T07:00:00Z,30.2791,-87.5561,1.184,8.06,1111122 
DISL,ioos:station:DISL:PPTA:1,2014-03-01T07:30:00Z,30.2791,-87.5561,1.159,8.42,1111122 
DISL,ioos:station:DISL:PPTA:1,2014-03-01T08:00:00Z,30.2791,-87.5561,1.146,8.25,1111122 
DISL,ioos:station:DISL:PPTA:1,2014-03-01T08:30:00Z,30.2791,-87.5561,1.15,8.69,1111122 
DISL,ioos:station:DISL:PPTA:1,2014-03-01T09:00:00Z,30.2791,-87.5561,1.115,8.17,1111122 
DISL,ioos:station:DISL:PPTA:1,2014-03-01T09:30:00Z,30.2791,-87.5561,1.141,8.64,1111122 
DISL,ioos:station:DISL:PPTA:1,2014-03-01T10:00:00Z,30.2791,-87.5561,1.16,8.78,1111122 
DISL,ioos:station:DISL:PPTA:1,2014-03-01T10:30:00Z,30.2791,-87.5561,1.136,8.94,1111122 
DISL,ioos:station:DISL:PPTA:1,2014-03-01T11:00:00Z,30.2791,-87.5561,1.127,8.85,1111122 
DISL,ioos:station:DISL:PPTA:1,2014-03-01T11:30:00Z,30.2791,-87.5561,1.137,8.91,1111122 
DISL,ioos:station:DISL:PPTA:1,2014-03-01T12:00:00Z,30.2791,-87.5561,1.085,8.61,1111122 
DISL,ioos:station:DISL:PPTA:1,2014-03-01T12:30:00Z,30.2791,-87.5561,1.115,9.1,1111122 
DISL,ioos:station:DISL:PPTA:1,2014-03-01T13:00:00Z,30.2791,-87.5561,1.095,8.94,1111122 
DISL,ioos:station:DISL:PPTA:1,2014-03-01T13:30:00Z,30.2791,-87.5561,1.088,8.99,1111122 
DISL,ioos:station:DISL:PPTA:1,2014-03-01T14:00:00Z,30.2791,-87.5561,1.096,8.93,1111122 
DISL,ioos:station:DISL:PPTA:1,2014-03-01T14:30:00Z,30.2791,-87.5561,1.089,9.0,1111122 
DISL,ioos:station:DISL:PPTA:1,2014-03-01T15:00:00Z,30.2791,-87.5561,1.095,8.96,1111122 
DISL,ioos:station:DISL:PPTA:1,2014-03-01T15:30:00Z,30.2791,-87.5561,1.099,9.02,1111122 
DISL,ioos:station:DISL:PPTA:1,2014-03-01T16:00:00Z,30.2791,-87.5561,1.087,9.0,1111122 
DISL,ioos:station:DISL:PPTA:1,2014-03-01T16:30:00Z,30.2791,-87.5561,1.105,9.05,1111122 
DISL,ioos:station:DISL:PPTA:1,2014-03-01T17:00:00Z,30.2791,-87.5561,1.097,9.05,1111122 
DISL,ioos:station:DISL:PPTA:1,2014-03-01T17:30:00Z,30.2791,-87.5561,1.079,9.09,1111122 
DISL,ioos:station:DISL:PPTA:1,2014-03-01T18:00:00Z,30.2791,-87.5561,1.096,9.26,1111122 
DISL,ioos:station:DISL:PPTA:1,2014-03-01T18:30:00Z,30.2791,-87.5561,1.07,9.36,1111122 
DISL,ioos:station:DISL:PPTA:1,2014-03-01T19:00:00Z,30.2791,-87.5561,1.06,9.28,1111122 
DISL,ioos:station:DISL:PPTA:1,2014-03-01T19:30:00Z,30.2791,-87.5561,1.055,9.56,1111122 
DISL,ioos:station:DISL:PPTA:1,2014-03-01T20:00:00Z,30.2791,-87.5561,1.051,9.51,1111122 
DISL,ioos:station:DISL:PPTA:1,2014-03-01T20:30:00Z,30.2791,-87.5561,1.056,9.52,1111122 
DISL,ioos:station:DISL:PPTA:1,2014-03-01T21:00:00Z,30.2791,-87.5561,1.049,9.55,1111122 
DISL,ioos:station:DISL:PPTA:1,2014-03-01T21:30:00Z,30.2791,-87.5561,1.067,9.6,1111122 
DISL,ioos:station:DISL:PPTA:1,2014-03-01T22:00:00Z,30.2791,-87.5561,1.065,9.59,1111122 
DISL,ioos:station:DISL:PPTA:1,2014-03-01T22:30:00Z,30.2791,-87.5561,1.066,9.75,1111122 
DISL,ioos:station:DISL:PPTA:1,2014-03-01T23:00:00Z,30.2791,-87.5561,1.082,9.62,1111122 
DISL,ioos:station:DISL:PPTA:1,2014-03-01T23:30:00Z,30.2791,-87.5561,1.081,9.47,1111122 
DISL,ioos:station:DISL:PPTA:1,2014-03-02T00:00:00Z,30.2791,-87.5561,1.092,9.58,1111122 
DISL,ioos:station:DISL:PPTA:1,2014-03-02T00:30:00Z,30.2791,-87.5561,1.105,9.4,1111122 
DISL,ioos:station:DISL:PPTA:1,2014-03-02T01:00:00Z,30.2791,-87.5561,1.102,8.77,1111122 
DISL,ioos:station:DISL:PPTA:1,2014-03-02T01:30:00Z,30.2791,-87.5561,1.116,8.48,1111122 
DISL,ioos:station:DISL:PPTA:1,2014-03-02T02:00:00Z,30.2791,-87.5561,1.119,8.14,1111122 
DISL,ioos:station:DISL:PPTA:1,2014-03-02T02:30:00Z,30.2791,-87.5561,1.121,8.32,1111122 
DISL,ioos:station:DISL:PPTA:1,2014-03-02T03:00:00Z,30.2791,-87.5561,1.134,8.36,1111122 
DISL,ioos:station:DISL:PPTA:1,2014-03-02T03:30:00Z,30.2791,-87.5561,1.128,8.09,1111122 
DISL,ioos:station:DISL:PPTA:1,2014-03-02T04:00:00Z,30.2791,-87.5561,1.134,8.07,1111122 
DISL,ioos:station:DISL:PPTA:1,2014-03-02T04:30:00Z,30.2791,-87.5561,1.15,8.16,1111122 
DISL,ioos:station:DISL:PPTA:1,2014-03-02T05:00:00Z,30.2791,-87.5561,1.167,8.28,1111122 
DISL,ioos:station:DISL:PPTA:1,2014-03-02T05:30:00Z,30.2791,-87.5561,1.154,8.33,1111122 
DISL,ioos:station:DISL:PPTA:1,2014-03-02T06:00:00Z,30.2791,-87.5561,1.169,8.22,1111122 
DISL,ioos:station:DISL:PPTA:1,2014-03-02T06:30:00Z,30.2791,-87.5561,1.178,8.29,1111122 
DISL,ioos:station:DISL:PPTA:1,2014-03-02T07:00:00Z,30.2791,-87.5561,1.156,8.29,1111122 
DISL,ioos:station:DISL:PPTA:1,2014-03-02T07:30:00Z,30.2791,-87.5561,1.143,8.28,1111122 
DISL,ioos:station:DISL:PPTA:1,2014-03-02T08:00:00Z,30.2791,-87.5561,1.138,8.23,1111122 
DISL,ioos:station:DISL:PPTA:1,2014-03-02T08:30:00Z,30.2791,-87.5561,1.128,8.3,1111122 
DISL,ioos:station:DISL:PPTA:1,2014-03-02T09:00:00Z,30.2791,-87.5561,1.125,8.63,1111122 
DISL,ioos:station:DISL:PPTA:1,2014-03-02T09:30:00Z,30.2791,-87.5561,1.133,9.08,1111122 
DISL,ioos:station:DISL:PPTA:1,2014-03-02T10:00:00Z,30.2791,-87.5561,1.125,8.6,1111122 
DISL,ioos:station:DISL:PPTA:1,2014-03-02T10:30:00Z,30.2791,-87.5561,1.127,8.6,1111122 
DISL,ioos:station:DISL:PPTA:1,2014-03-02T11:00:00Z,30.2791,-87.5561,1.122,8.49,1111122 
DISL,ioos:station:DISL:PPTA:1,2014-03-02T11:30:00Z,30.2791,-87.5561,1.139,8.76,1111122 
DISL,ioos:station:DISL:PPTA:1,2014-03-02T12:00:00Z,30.2791,-87.5561,1.132,8.07,1111122 
DISL,ioos:station:DISL:PPTA:1,2014-03-02T12:30:00Z,30.2791,-87.5561,1.151,9.03,1111122 
DISL,ioos:station:DISL:PPTA:1,2014-03-02T13:00:00Z,30.2791,-87.5561,1.139,8.67,1111122 
DISL,ioos:station:DISL:PPTA:1,2014-03-02T13:30:00Z,30.2791,-87.5561,1.143,8.41,1111122 
DISL,ioos:station:DISL:PPTA:1,2014-03-02T14:00:00Z,30.2791,-87.5561,1.151,8.66,1111122 
DISL,ioos:station:DISL:PPTA:1,2014-03-02T14:30:00Z,30.2791,-87.5561,1.125,8.78,1111122 
DISL,ioos:station:DISL:PPTA:1,2014-03-02T15:00:00Z,30.2791,-87.5561,1.133,8.97,1111122 
DISL,ioos:station:DISL:PPTA:1,2014-03-02T15:30:00Z,30.2791,-87.5561,1.137,9.17,1111122 
DISL,ioos:station:DISL:PPTA:1,2014-03-02T16:00:00Z,30.2791,-87.5561,1.128,9.28,1111122 
DISL,ioos:station:DISL:PPTA:1,2014-03-02T16:30:00Z,30.2791,-87.5561,1.141,9.24,1111122 
DISL,ioos:station:DISL:PPTA:1,2014-03-02T17:00:00Z,30.2791,-87.5561,1.133,8.88,1111122 
DISL,ioos:station:DISL:PPTA:1,2014-03-02T17:30:00Z,30.2791,-87.5561,1.129,9.0,1111122 
DISL,ioos:station:DISL:PPTA:1,2014-03-02T18:00:00Z,30.2791,-87.5561,1.132,9.12,1111122 
DISL,ioos:station:DISL:PPTA:1,2014-03-02T18:30:00Z,30.2791,-87.5561,1.125,9.32,1111122 
DISL,ioos:station:DISL:PPTA:1,2014-03-02T19:00:00Z,30.2791,-87.5561,1.105,9.25,1111122 
DISL,ioos:station:DISL:PPTA:1,2014-03-02T19:30:00Z,30.2791,-87.5561,1.105,9.27,1111122 
DISL,ioos:station:DISL:PPTA:1,2014-03-02T20:00:00Z,30.2791,-87.5561,1.092,9.46,1111122 
DISL,ioos:station:DISL:PPTA:1,2014-03-02T20:30:00Z,30.2791,-87.5561,1.085,9.49,1111122 
DISL,ioos:station:DISL:PPTA:1,2014-03-02T21:00:00Z,30.2791,-87.5561,1.085,9.7,1111122 
DISL,ioos:station:DISL:PPTA:1,2014-03-02T21:30:00Z,30.2791,-87.5561,1.086,9.51,1111122 
DISL,ioos:station:DISL:PPTA:1,2014-03-02T22:00:00Z,30.2791,-87.5561,1.081,9.59,1111122 
DISL,ioos:station:DISL:PPTA:1,2014-03-02T22:30:00Z,30.2791,-87.5561,1.078,9.35,1111122 
DISL,ioos:station:DISL:PPTA:1,2014-03-02T23:00:00Z,30.2791,-87.5561,1.083,9.59,1111122 
DISL,ioos:station:DISL:PPTA:1,2014-03-02T23:30:00Z,30.2791,-87.5561,1.1,9.75,1111122 
DISL,ioos:station:DISL:PPTA:1,2014-03-03T00:00:00Z,30.2791,-87.5561,1.093,9.4,1111122 
DISL,ioos:station:DISL:PPTA:1,2014-03-03T00:30:00Z,30.2791,-87.5561,1.119,9.46,1111122 
DISL,ioos:station:DISL:PPTA:1,2014-03-03T01:00:00Z,30.2791,-87.5561,1.126,9.39,1111122 
DISL,ioos:station:DISL:PPTA:1,2014-03-03T01:30:00Z,30.2791,-87.5561,1.133,9.17,1111122 
DISL,ioos:station:DISL:PPTA:1,2014-03-03T02:00:00Z,30.2791,-87.5561,1.126,9.26,1111122 
DISL,ioos:station:DISL:PPTA:1,2014-03-03T02:30:00Z,30.2791,-87.5561,1.114,8.29,1111122 
DISL,ioos:station:DISL:PPTA:1,2014-03-03T03:00:00Z,30.2791,-87.5561,1.107,8.31,1111122 
DISL,ioos:station:DISL:PPTA:1,2014-03-03T03:30:00Z,30.2791,-87.5561,1.108,8.33,1111122 
DISL,ioos:station:DISL:PPTA:1,2014-03-03T04:00:00Z,30.2791,-87.5561,1.132,8.0,1111122 
DISL,ioos:station:DISL:PPTA:1,2014-03-03T04:30:00Z,30.2791,-87.5561,1.139,8.12,1111122 
DISL,ioos:station:DISL:PPTA:1,2014-03-03T05:00:00Z,30.2791,-87.5561,1.133,8.33,1111122 
DISL,ioos:station:DISL:PPTA:1,2014-03-03T05:30:00Z,30.2791,-87.5561,1.16,7.99,1111122 
DISL,ioos:station:DISL:PPTA:1,2014-03-03T06:00:00Z,30.2791,-87.5561,1.169,8.05,1111122 
DISL,ioos:station:DISL:PPTA:1,2014-03-03T06:30:00Z,30.2791,-87.5561,1.16,7.87,1111122 
DISL,ioos:station:DISL:PPTA:1,2014-03-03T07:00:00Z,30.2791,-87.5561,1.17,8.01,1111122 
DISL,ioos:station:DISL:PPTA:1,2014-03-03T07:30:00Z,30.2791,-87.5561,1.166,8.09,1111122 
DISL,ioos:station:DISL:PPTA:1,2014-03-03T08:00:00Z,30.2791,-87.5561,1.168,8.06,1111122 
DISL,ioos:station:DISL:PPTA:1,2014-03-03T08:30:00Z,30.2791,-87.5561,1.159,8.15,1111122 
DISL,ioos:station:DISL:PPTA:1,2014-03-03T09:00:00Z,30.2791,-87.5561,1.125,8.11,1111122 
DISL,ioos:station:DISL:PPTA:1,2014-03-03T09:30:00Z,30.2791,-87.5561,1.14,8.23,1111122 
DISL,ioos:station:DISL:PPTA:1,2014-03-03T10:00:00Z,30.2791,-87.5561,1.172,8.33,1111122 
DISL,ioos:station:DISL:PPTA:1,2014-03-03T10:30:00Z,30.2791,-87.5561,1.172,8.31,1111122 
DISL,ioos:station:DISL:PPTA:1,2014-03-03T11:00:00Z,30.2791,-87.5561,1.179,8.3,1111122 
DISL,ioos:station:DISL:PPTA:1,2014-03-03T11:30:00Z,30.2791,-87.5561,1.169,8.33,1111122 
DISL,ioos:station:DISL:PPTA:1,2014-03-03T12:00:00Z,30.2791,-87.5561,1.19,7.69,1111122 
DISL,ioos:station:DISL:PPTA:1,2014-03-03T12:30:00Z,30.2791,-87.5561,1.179,8.07,1111122 
DISL,ioos:station:DISL:PPTA:1,2014-03-03T13:00:00Z,30.2791,-87.5561,1.173,7.75,1111122 
DISL,ioos:station:DISL:PPTA:1,2014-03-03T13:30:00Z,30.2791,-87.5561,1.196,7.76,1111122 
DISL,ioos:station:DISL:PPTA:1,2014-03-03T14:00:00Z,30.2791,-87.5561,1.207,7.86,1111122 
DISL,ioos:station:DISL:PPTA:1,2014-03-03T14:30:00Z,30.2791,-87.5561,1.209,7.72,1111122 
DISL,ioos:station:DISL:PPTA:1,2014-03-03T15:00:00Z,30.2791,-87.5561,1.185,7.64,1111122 
DISL,ioos:station:DISL:PPTA:1,2014-03-03T15:30:00Z,30.2791,-87.5561,1.189,7.62,1111122 
DISL,ioos:station:DISL:PPTA:1,2014-03-03T16:00:00Z,30.2791,-87.5561,1.205,7.9,1111122 
DISL,ioos:station:DISL:PPTA:1,2014-03-03T16:30:00Z,30.2791,-87.5561,1.169,8.15,1111122 
DISL,ioos:station:DISL:PPTA:1,2014-03-03T17:00:00Z,30.2791,-87.5561,1.196,8.26,1111122 
DISL,ioos:station:DISL:PPTA:1,2014-03-03T17:30:00Z,30.2791,-87.5561,1.189,8.37,1111122 
DISL,ioos:station:DISL:PPTA:1,2014-03-03T18:00:00Z,30.2791,-87.5561,1.135,8.33,1111122 
DISL,ioos:station:DISL:PPTA:1,2014-03-03T18:30:00Z,30.2791,-87.5561,1.155,8.32,1111122 
DISL,ioos:station:DISL:PPTA:1,2014-03-03T19:00:00Z,30.2791,-87.5561,1.18,8.56,1111122 
DISL,ioos:station:DISL:PPTA:1,2014-03-03T19:30:00Z,30.2791,-87.5561,1.194,8.52,1111122 
DISL,ioos:station:DISL:PPTA:1,2014-03-03T20:00:00Z,30.2791,-87.5561,1.2,8.66,1111122 
DISL,ioos:station:DISL:PPTA:1,2014-03-03T20:30:00Z,30.2791,-87.5561,1.181,8.76,1111122 
DISL,ioos:station:DISL:PPTA:1,2014-03-03T21:00:00Z,30.2791,-87.5561,1.154,8.65,1111122 
DISL,ioos:station:DISL:PPTA:1,2014-03-03T21:30:00Z,30.2791,-87.5561,1.115,8.85,1111122 
DISL,ioos:station:DISL:PPTA:1,2014-03-03T22:00:00Z,30.2791,-87.5561,1.104,8.74,1111122 
DISL,ioos:station:DISL:PPTA:1,2014-03-03T22:30:00Z,30.2791,-87.5561,1.073,8.66,1111122 
DISL,ioos:station:DISL:PPTA:1,2014-03-03T23:00:00Z,30.2791,-87.5561,1.06,8.94,1111122 
DISL,ioos:station:DISL:PPTA:1,2014-03-03T23:30:00Z,30.2791,-87.5561,1.064,8.92,1111122 
DISL,ioos:station:DISL:PPTA:1,2014-03-04T00:00:00Z,30.2791,-87.5561,1.074,8.95,1111122 
DISL,ioos:station:DISL:PPTA:1,2014-03-04T00:30:00Z,30.2791,-87.5561,1.071,8.44,1111122 
DISL,ioos:station:DISL:PPTA:1,2014-03-04T01:00:00Z,30.2791,-87.5561,1.075,8.91,1111122 
DISL,ioos:station:DISL:PPTA:1,2014-03-04T01:30:00Z,30.2791,-87.5561,1.06,8.66,1111122 
DISL,ioos:station:DISL:PPTA:1,2014-03-04T02:00:00Z,30.2791,-87.5561,1.042,8.9,1111122 
DISL,ioos:station:DISL:PPTA:1,2014-03-04T02:30:00Z,30.2791,-87.5561,1.066,9.01,1111122 
DISL,ioos:station:DISL:PPTA:1,2014-03-04T03:00:00Z,30.2791,-87.5561,1.058,9.02,1111122 
DISL,ioos:station:DISL:PPTA:1,2014-03-04T03:30:00Z,30.2791,-87.5561,1.052,8.91,1111122 
DISL,ioos:station:DISL:PPTA:1,2014-03-04T04:00:00Z,30.2791,-87.5561,1.037,8.96,1111122 
DISL,ioos:station:DISL:PPTA:1,2014-03-04T04:30:00Z,30.2791,-87.5561,1.058,8.81,1111122 
DISL,ioos:station:DISL:PPTA:1,2014-03-04T05:00:00Z,30.2791,-87.5561,1.055,8.96,1111122 
DISL,ioos:station:DISL:PPTA:1,2014-03-04T05:30:00Z,30.2791,-87.5561,1.042,9.02,1111122 
DISL,ioos:station:DISL:PPTA:1,2014-03-04T06:00:00Z,30.2791,-87.5561,1.073,8.89,1111122 
DISL,ioos:station:DISL:PPTA:1,2014-03-04T06:30:00Z,30.2791,-87.5561,1.066,8.97,1111122 
DISL,ioos:station:DISL:PPTA:1,2014-03-04T07:00:00Z,30.2791,-87.5561,1.057,8.79,1111122 
DISL,ioos:station:DISL:PPTA:1,2014-03-04T07:30:00Z,30.2791,-87.5561,1.057,8.87,1111122 
DISL,ioos:station:DISL:PPTA:1,2014-03-04T08:00:00Z,30.2791,-87.5561,1.033,7.47,1111122 
DISL,ioos:station:DISL:PPTA:1,2014-03-04T08:30:00Z,30.2791,-87.5561,1.043,7.84,1111122 
DISL,ioos:station:DISL:PPTA:1,2014-03-04T09:00:00Z,30.2791,-87.5561,1.049,7.91,1111122 
DISL,ioos:station:DISL:PPTA:1,2014-03-04T09:30:00Z,30.2791,-87.5561,1.033,7.91,1111122 
DISL,ioos:station:DISL:PPTA:1,2014-03-04T10:00:00Z,30.2791,-87.5561,1.046,7.73,1111122 
DISL,ioos:station:DISL:PPTA:1,2014-03-04T10:30:00Z,30.2791,-87.5561,1.043,7.92,1111122 
DISL,ioos:station:DISL:PPTA:1,2014-03-04T11:00:00Z,30.2791,-87.5561,1.018,7.74,1111122 
DISL,ioos:station:DISL:PPTA:1,2014-03-04T11:30:00Z,30.2791,-87.5561,1.041,7.98,1111122 
DISL,ioos:station:DISL:PPTA:1,2014-03-04T12:00:00Z,30.2791,-87.5561,1.052,7.9,1111122 
DISL,ioos:station:DISL:PPTA:1,2014-03-04T12:30:00Z,30.2791,-87.5561,1.074,7.8,1111122 
DISL,ioos:station:DISL:PPTA:1,2014-03-04T13:00:00Z,30.2791,-87.5561,1.118,7.84,1111122 
DISL,ioos:station:DISL:PPTA:1,2014-03-04T13:30:00Z,30.2791,-87.5561,1.141,7.81,1111122 
DISL,ioos:station:DISL:PPTA:1,2014-03-04T14:00:00Z,30.2791,-87.5561,1.115,7.89,1111122 
DISL,ioos:station:DISL:PPTA:1,2014-03-04T14:30:00Z,30.2791,-87.5561,1.139,7.83,1111122 
DISL,ioos:station:DISL:PPTA:1,2014-03-04T15:00:00Z,30.2791,-87.5561,1.145,8.01,1111122 
DISL,ioos:station:DISL:PPTA:1,2014-03-04T15:30:00Z,30.2791,-87.5561,1.148,8.19,1111122 
DISL,ioos:station:DISL:PPTA:1,2014-03-04T16:00:00Z,30.2791,-87.5561,1.174,8.1,1111122 
DISL,ioos:station:DISL:PPTA:1,2014-03-04T16:30:00Z,30.2791,-87.5561,1.146,8.17,1111122 
DISL,ioos:station:DISL:PPTA:1,2014-03-04T17:00:00Z,30.2791,-87.5561,1.139,8.33,1111122 
DISL,ioos:station:DISL:PPTA:1,2014-03-04T17:30:00Z,30.2791,-87.5561,1.155,8.31,1111122 
DISL,ioos:station:DISL:PPTA:1,2014-03-04T18:00:00Z,30.2791,-87.5561,1.153,8.27,1111122 
DISL,ioos:station:DISL:PPTA:1,2014-03-04T18:30:00Z,30.2791,-87.5561,1.143,8.33,1111122 
DISL,ioos:station:DISL:PPTA:1,2014-03-04T19:00:00Z,30.2791,-87.5561,1.148,8.39,1111122 
DISL,ioos:station:DISL:PPTA:1,2014-03-04T19:30:00Z,30.2791,-87.5561,1.173,8.18,1111122 
DISL,ioos:station:DISL:PPTA:1,2014-03-04T20:00:00Z,30.2791,-87.5561,1.141,8.33,1111122 
DISL,ioos:station:DISL:PPTA:1,2014-03-04T20:30:00Z,30.2791,-87.5561,1.139,8.28,1111122 
DISL,ioos:station:DISL:PPTA:1,2014-03-04T21:00:00Z,30.2791,-87.5561,1.133,8.58,1111122 
DISL,ioos:station:DISL:PPTA:1,2014-03-04T21:30:00Z,30.2791,-87.5561,1.112,8.53,1111122 
DISL,ioos:station:DISL:PPTA:1,2014-03-04T22:00:00Z,30.2791,-87.5561,1.09,8.52,1111122 
DISL,ioos:station:DISL:PPTA:1,2014-03-04T22:30:00Z,30.2791,-87.5561,1.075,8.47,1111122 
DISL,ioos:station:DISL:PPTA:1,2014-03-04T23:00:00Z,30.2791,-87.5561,1.103,8.91,1111122 
DISL,ioos:station:DISL:PPTA:1,2014-03-04T23:30:00Z,30.2791,-87.5561,1.116,8.85,1111122 
DISL,ioos:station:DISL:PPTA:1,2014-03-05T00:00:00Z,30.2791,-87.5561,1.105,8.88,1111122 
DISL,ioos:station:DISL:PPTA:1,2014-03-05T00:30:00Z,30.2791,-87.5561,1.078,8.92,1111122 
DISL,ioos:station:DISL:PPTA:1,2014-03-05T01:00:00Z,30.2791,-87.5561,1.034,8.98,1111122 
DISL,ioos:station:DISL:PPTA:1,2014-03-05T01:30:00Z,30.2791,-87.5561,1.066,8.94,1111122 
DISL,ioos:station:DISL:PPTA:1,2014-03-05T02:00:00Z,30.2791,-87.5561,1.085,9.01,1111122 
DISL,ioos:station:DISL:PPTA:1,2014-03-05T02:30:00Z,30.2791,-87.5561,1.065,8.89,1111122 
DISL,ioos:station:DISL:PPTA:1,2014-03-05T03:00:00Z,30.2791,-87.5561,1.059,8.83,1111122 
DISL,ioos:station:DISL:PPTA:1,2014-03-05T03:30:00Z,30.2791,-87.5561,1.075,9.02,1111122 
DISL,ioos:station:DISL:PPTA:1,2014-03-05T04:00:00Z,30.2791,-87.5561,1.045,8.94,1111122 
DISL,ioos:station:DISL:PPTA:1,2014-03-05T04:30:00Z,30.2791,-87.5561,1.055,8.72,1111122 
DISL,ioos:station:DISL:PPTA:1,2014-03-05T05:00:00Z,30.2791,-87.5561,1.051,8.92,1111122 
DISL,ioos:station:DISL:PPTA:1,2014-03-05T05:30:00Z,30.2791,-87.5561,1.079,9.13,1111122 
DISL,ioos:station:DISL:PPTA:1,2014-03-05T06:00:00Z,30.2791,-87.5561,0.988,9.03,1111122 
DISL,ioos:station:DISL:PPTA:1,2014-03-05T06:30:00Z,30.2791,-87.5561,1.057,8.96,1111122 
DISL,ioos:station:DISL:PPTA:1,2014-03-05T07:00:00Z,30.2791,-87.5561,1.098,8.63,1111122 
DISL,ioos:station:DISL:PPTA:1,2014-03-05T07:30:00Z,30.2791,-87.5561,1.052,8.79,1111122 
DISL,ioos:station:DISL:PPTA:1,2014-03-05T08:00:00Z,30.2791,-87.5561,1.089,8.56,1111122 
DISL,ioos:station:DISL:PPTA:1,2014-03-05T08:30:00Z,30.2791,-87.5561,1.088,8.65,1111122 
DISL,ioos:station:DISL:PPTA:1,2014-03-05T09:00:00Z,30.2791,-87.5561,1.07,8.19,1111122 
DISL,ioos:station:DISL:PPTA:1,2014-03-05T09:30:00Z,30.2791,-87.5561,1.033,8.31,1111122 
DISL,ioos:station:DISL:PPTA:1,2014-03-05T10:00:00Z,30.2791,-87.5561,1.127,8.39,1111122 
DISL,ioos:station:DISL:PPTA:1,2014-03-05T10:30:00Z,30.2791,-87.5561,1.051,8.46,1111122 
DISL,ioos:station:DISL:PPTA:1,2014-03-05T11:00:00Z,30.2791,-87.5561,1.058,8.39,1111122 
DISL,ioos:station:DISL:PPTA:1,2014-03-05T11:30:00Z,30.2791,-87.5561,1.168,8.46,1111122 
DISL,ioos:station:DISL:PPTA:1,2014-03-05T12:00:00Z,30.2791,-87.5561,1.204,8.48,1111122 
DISL,ioos:station:DISL:PPTA:1,2014-03-05T12:30:00Z,30.2791,-87.5561,1.135,8.44,1111122 
DISL,ioos:station:DISL:PPTA:1,2014-03-05T13:00:00Z,30.2791,-87.5561,1.081,8.42,1111122 
DISL,ioos:station:DISL:PPTA:1,2014-03-05T13:30:00Z,30.2791,-87.5561,1.188,8.36,1111122 
DISL,ioos:station:DISL:PPTA:1,2014-03-05T14:00:00Z,30.2791,-87.5561,1.147,8.48,1111122 
DISL,ioos:station:DISL:PPTA:1,2014-03-05T14:30:00Z,30.2791,-87.5561,1.141,8.39,1111122 
DISL,ioos:station:DISL:PPTA:1,2014-03-05T15:00:00Z,30.2791,-87.5561,1.216,8.45,1111122 
DISL,ioos:station:DISL:PPTA:1,2014-03-05T15:30:00Z,30.2791,-87.5561,1.225,8.58,1111122 
DISL,ioos:station:DISL:PPTA:1,2014-03-05T16:00:00Z,30.2791,-87.5561,1.245,8.6,1111122 
DISL,ioos:station:DISL:PPTA:1,2014-03-05T16:30:00Z,30.2791,-87.5561,1.244,8.5,1111122 
DISL,ioos:station:DISL:PPTA:1,2014-03-05T17:00:00Z,30.2791,-87.5561,1.214,8.66,1111122 
DISL,ioos:station:DISL:PPTA:1,2014-03-05T17:30:00Z,30.2791,-87.5561,1.246,8.6,1111122 
DISL,ioos:station:DISL:PPTA:1,2014-03-05T18:00:00Z,30.2791,-87.5561,1.233,8.66,1111122 
DISL,ioos:station:DISL:PPTA:1,2014-03-05T18:30:00Z,30.2791,-87.5561,1.246,8.7,1111122 
DISL,ioos:station:DISL:PPTA:1,2014-03-05T19:00:00Z,30.2791,-87.5561,1.215,8.75,1111122 
DISL,ioos:station:DISL:PPTA:1,2014-03-05T19:30:00Z,30.2791,-87.5561,1.256,8.89,1111122 
DISL,ioos:station:DISL:PPTA:1,2014-03-05T20:00:00Z,30.2791,-87.5561,1.249,8.81,1111122 
DISL,ioos:station:DISL:PPTA:1,2014-03-05T20:30:00Z,30.2791,-87.5561,1.266,8.85,1111122 
DISL,ioos:station:DISL:PPTA:1,2014-03-05T21:00:00Z,30.2791,-87.5561,1.305,8.98,1111122 
DISL,ioos:station:DISL:PPTA:1,2014-03-05T21:30:00Z,30.2791,-87.5561,1.215,9.06,1111122 
DISL,ioos:station:DISL:PPTA:1,2014-03-05T22:00:00Z,30.2791,-87.5561,1.209,8.96,1111122 
DISL,ioos:station:DISL:PPTA:1,2014-03-05T22:30:00Z,30.2791,-87.5561,1.18,8.89,1111122 
DISL,ioos:station:DISL:PPTA:1,2014-03-05T23:00:00Z,30.2791,-87.5561,1.199,8.88,1111122 
DISL,ioos:station:DISL:PPTA:1,2014-03-05T23:30:00Z,30.2791,-87.5561,1.175,8.78,1111122 
DISL,ioos:station:DISL:PPTA:1,2014-03-06T00:00:00Z,30.2791,-87.5561,1.166,8.86,1111122 
DISL,ioos:station:DISL:PPTA:1,2014-03-06T00:30:00Z,30.2791,-87.5561,1.164,8.99,1111122 
DISL,ioos:station:DISL:PPTA:1,2014-03-06T01:00:00Z,30.2791,-87.5561,1.149,8.93,1111122 
DISL,ioos:station:DISL:PPTA:1,2014-03-06T01:30:00Z,30.2791,-87.5561,1.147,9.0,1111122 
DISL,ioos:station:DISL:PPTA:1,2014-03-06T02:00:00Z,30.2791,-87.5561,1.129,9.1,1111122 
DISL,ioos:station:DISL:PPTA:1,2014-03-06T02:30:00Z,30.2791,-87.5561,1.155,9.22,1111122 
DISL,ioos:station:DISL:PPTA:1,2014-03-06T03:00:00Z,30.2791,-87.5561,1.158,9.2,1111122 
DISL,ioos:station:DISL:PPTA:1,2014-03-06T03:30:00Z,30.2791,-87.5561,1.127,9.06,1111122 
DISL,ioos:station:DISL:PPTA:1,2014-03-06T04:00:00Z,30.2791,-87.5561,1.122,8.88,1111122 
DISL,ioos:station:DISL:PPTA:1,2014-03-06T04:30:00Z,30.2791,-87.5561,1.139,8.92,1111122 
DISL,ioos:station:DISL:PPTA:1,2014-03-06T05:00:00Z,30.2791,-87.5561,1.086,9.02,1111122 
DISL,ioos:station:DISL:PPTA:1,2014-03-06T05:30:00Z,30.2791,-87.5561,1.094,9.07,1111122 
DISL,ioos:station:DISL:PPTA:1,2014-03-06T06:00:00Z,30.2791,-87.5561,1.122,8.9,1111122 
DISL,ioos:station:DISL:PPTA:1,2014-03-06T06:30:00Z,30.2791,-87.5561,1.094,9.06,1111122 
DISL,ioos:station:DISL:PPTA:1,2014-03-06T07:00:00Z,30.2791,-87.5561,1.102,8.99,1111122 
DISL,ioos:station:DISL:PPTA:1,2014-03-06T07:30:00Z,30.2791,-87.5561,1.096,9.09,1111122 
DISL,ioos:station:DISL:PPTA:1,2014-03-06T08:00:00Z,30.2791,-87.5561,1.146,9.36,1111122 
DISL,ioos:station:DISL:PPTA:1,2014-03-06T08:30:00Z,30.2791,-87.5561,1.18,9.19,1111122 
DISL,ioos:station:DISL:PPTA:1,2014-03-06T09:00:00Z,30.2791,-87.5561,1.146,8.76,1111122 
DISL,ioos:station:DISL:PPTA:1,2014-03-06T09:30:00Z,30.2791,-87.5561,1.104,8.57,1111122 
DISL,ioos:station:DISL:PPTA:1,2014-03-06T10:00:00Z,30.2791,-87.5561,1.145,8.93,1111122 
DISL,ioos:station:DISL:PPTA:1,2014-03-06T10:30:00Z,30.2791,-87.5561,1.168,8.92,1111122 
DISL,ioos:station:DISL:PPTA:1,2014-03-06T11:00:00Z,30.2791,-87.5561,1.206,8.48,1111122 
DISL,ioos:station:DISL:PPTA:1,2014-03-06T11:30:00Z,30.2791,-87.5561,1.163,8.62,1111122 
DISL,ioos:station:DISL:PPTA:1,2014-03-06T12:00:00Z,30.2791,-87.5561,1.169,8.55,1111122 
DISL,ioos:station:DISL:PPTA:1,2014-03-06T12:30:00Z,30.2791,-87.5561,1.17,8.52,1111122 
DISL,ioos:station:DISL:PPTA:1,2014-03-06T13:00:00Z,30.2791,-87.5561,1.283,8.58,1111122 
DISL,ioos:station:DISL:PPTA:1,2014-03-06T13:30:00Z,30.2791,-87.5561,1.26,8.49,1111122 
DISL,ioos:station:DISL:PPTA:1,2014-03-06T14:00:00Z,30.2791,-87.5561,1.233,8.49,1111122 
DISL,ioos:station:DISL:PPTA:1,2014-03-06T14:30:00Z,30.2791,-87.5561,1.253,8.47,1111122 
DISL,ioos:station:DISL:PPTA:1,2014-03-06T15:00:00Z,30.2791,-87.5561,1.257,8.47,1111122 
DISL,ioos:station:DISL:PPTA:1,2014-03-06T15:30:00Z,30.2791,-87.5561,1.285,8.53,1111122 